Regional Weather Roundup
Issued by NWS Goodland, KS

Home | Current Version | Previous Version | Graphics & Text | Print | Product List | Glossary On
Versions: 1 2 3 4 5 6 7 8 9 10 11 12 13 14 15 16 17 18 19 20 21 22 23 24 25 26 27 28 29 30 31 32 33 34 35 36 37 38 39 40 41 42 43 44 45 46 47 48 49 50
000
ASUS43 KGLD 240059
RWRGLD

GOODLAND FORECAST AREA HOURLY WEATHER ROUNDUP
NATIONAL WEATHER SERVICE GOODLAND KS
700 PM MDT WED MAY 23 2018

...OFFICIAL OBSERVATIONS...

CITY           SKY/WX    TMP DP  RH WIND       PRES   REMARKS
GOODLAND KS    MOCLDY    79  58  48 S20G29    29.91S
HILL CITY KS   CLOUDY    78  61  55 SE13G23   29.94S
IMPERIAL NEB   PTSUNNY   80  58  46 SE21G33   29.87S
MCCOOK NEB     PTCLDY    82  56  40 S14G22    29.90S
AKRON CO       PTSUNNY   79  46  31 SE8G17    29.91F
BURLINGTON CO  PTSUNNY   80  55  42 S17G30    29.94R
LIMON CO       PTSUNNY   76  49  38 S20G36    29.96S
$$

...UNOFFICIAL OBSERVATIONS...

CITY           SKY/WX    TMP DP  RH WIND       PRES   REMARKS
NORTON KS      CLEAR     81  61  50 SE15G23   29.92
SHARON SPRINGS   N/A     80  59  48 MISG        N/A
KIT CARSON CO    N/A     79  52  38 MISG        N/A
YUMA CO        FAIR      77  48  36 S15       29.89R
$$




USA.gov is the U.S. government's official web portal to all federal, state and local government web resources and services.